Simultaneous Nadir Overpasses (SNOs) Predictions

Prediction of SNOs between METOP-B and TERRA Satellite Orbit:

Table of predicted SNOs for the next 14.0 days since TLE Epoch: 6/1/2019
Index Date (METOP-B) Time (METOP-B) Lat,Lon (METOP-B) SZA (METOP-B ) Date (TERRA) Time (TERRA) Lat,Lon (TERRA) SZA (TERRA ) Distance(km) Time Diff (sec)
1 06/02/2019 14:05:29 -81.31,-163.91 117.88 06/02/2019 14:05:59 -81.31,-164.09 117.89 3.11 30
2 06/02/2019 14:56:09 81.31, 3.57 62.14 06/02/2019 14:55:25 81.32, 3.67 62.13 1.79 44
3 06/05/2019 09:39:52 -81.30, -97.93 118.28 06/05/2019 09:40:13 -81.30, -97.89 118.27 1.00 21
4 06/05/2019 10:30:31 81.31, 69.91 61.78 06/05/2019 10:29:39 81.30, 69.84 61.74 1.40 52
5 06/08/2019 05:14:14 -81.31, -31.20 118.54 06/08/2019 05:14:27 -81.30, -31.34 118.55 2.42 13
6 06/08/2019 06:04:54 81.31, 136.23 61.47 06/08/2019 06:03:53 81.31, 136.35 61.46 2.11 61
7 06/11/2019 00:48:37 -81.31, 35.13 118.79 06/11/2019 00:48:41 -81.31, 35.17 118.79 0.67 4
8 06/11/2019 01:39:16 81.31,-157.07 61.27 06/11/2019 01:38:07 81.31,-157.17 61.22 1.71 69
9 06/13/2019 19:32:18 81.30, -66.06 60.99 06/13/2019 19:33:27 81.31, -66.02 61.03 0.85 69




NCC Satellite Simultaneous Nadir Overpasses (SNOs) Prediction Service
